Weather History for Greenwood, SC

Change the Weather History Date:

Wednesday, September 4, 2013

  Actual Average (KAND) Record (KAND)
Temperature  
Mean Temperature 78 °F -  
Max Temperature 88 °F 84 °F 99 °F (1954)
Min Temperature 68 °F 67 °F 54 °F (1952)
Cooling Degree Days 13    
Growing Degree Days 28 (Base 50)    
Moisture  
Dew Point 68 °F    
Average Humidity 71    
Maximum Humidity 93    
Minimum Humidity 51    
Precipitation  
Precipitation 0.00 in - - ()
Sea Level Pressure  
Sea Level Pressure 30.06 in    
Wind  
Wind Speed 2 mph (NE)    
Max Wind Speed 7 mph    
Max Gust Speed -    
Visibility 6 miles    
Events      
Averages and records for this station are not official NWS values.
T = Trace of Precipitation, MM = Missing Value Source: NWS Daily Summary

Daily Weather History Graph

Daily Weather History Graph

Search for Another Location

Airport:

Trip Planner

Search our weather history database for the weather conditions in past years. The results will help you decide how hot, cold, wet, or windy it might be!

Date:

Astronomy

Sep. 04, 2013 Rise Set
Actual Time 7:04 AM EDT 7:50 PM EDT
Civil Twilight 6:38 AM EDT 8:15 PM EDT
Nautical Twilight 6:08 AM EDT 8:45 PM EDT
Astronomical Twilight 5:37 AM EDT 9:16 PM EDT
Moon 6:15 AM EDT (9/4) 7:10 PM EDT (9/4)
Length of Visible Light 13h 36m
Length of Day
12h 45m
Waning Crescent, 1% of the Moon is Illuminated
Sep 4
Waning Crescent
Sep 5
New
Sep 12
First Quarter
Sep 19
Full
Sep 26
Last Quarter

Hourly Weather History & Observations

Time (EDT) Temp. Heat Index Dew Point Humidity Pressure Visibility Wind Dir Wind Speed Gust Speed Precip Events Conditions
12:56 AM 73.9 °F - 70.0 °F 87% 29.98 in 10.0 mi Calm Calm - N/A   Mostly Cloudy
1:56 AM 73.0 °F - 69.1 °F 87% 29.97 in 10.0 mi Calm Calm - N/A   Clear
2:56 AM 71.1 °F - 69.1 °F 93% 29.97 in 9.0 mi Calm Calm - N/A   Partly Cloudy
3:56 AM 71.1 °F - 68.0 °F 90% 29.98 in 10.0 mi Calm Calm - N/A   Scattered Clouds
4:56 AM 72.0 °F - 66.9 °F 84% 29.99 in 10.0 mi ENE 3.5 mph - N/A   Scattered Clouds
5:56 AM 70.0 °F - 66.0 °F 87% 30.00 in 10.0 mi Calm Calm - N/A   Clear
6:56 AM 68.0 °F - 64.9 °F 90% 30.02 in 9.0 mi Calm Calm - N/A   Partly Cloudy
7:56 AM 71.1 °F - 66.9 °F 87% 30.05 in 10.0 mi Calm Calm - N/A   Partly Cloudy
8:56 AM 73.9 °F - 66.0 °F 76% 30.06 in 10.0 mi NE 4.6 mph - N/A   Clear
9:56 AM 77.0 °F - 64.9 °F 66% 30.08 in 10.0 mi NE 4.6 mph - N/A   Clear
10:12 AM 78.8 °F - 64.4 °F 61% 30.10 in 0.5 mi Calm Calm - N/A   Haze
10:16 AM 78.8 °F - 66.2 °F 65% 30.11 in 4.0 mi Variable 4.6 mph - N/A   Haze
10:56 AM 81.0 °F 83.0 °F 66.0 °F 60% 30.09 in 3.0 mi Variable 5.8 mph - N/A   Haze
11:03 AM 80.6 °F 82.3 °F 64.4 °F 58% 30.11 in 2.5 mi East 4.6 mph - N/A   Haze
11:11 AM 80.6 °F 82.3 °F 64.4 °F 58% 30.11 in 10.0 mi Variable 3.5 mph - N/A   Clear
11:40 AM 82.4 °F 84.6 °F 66.2 °F 58% 30.11 in 0.2 mi Variable 6.9 mph - N/A   Haze
11:52 AM 82.4 °F 84.6 °F 66.2 °F 58% 30.11 in 1.0 mi NE 3.5 mph - N/A   Haze
11:54 AM 82.4 °F 84.6 °F 66.2 °F 58% 30.11 in 5.0 mi ENE 4.6 mph - N/A   Haze
11:56 AM 82.0 °F 84.5 °F 66.9 °F 60% 30.09 in 10.0 mi NE 4.6 mph - N/A   Clear
12:56 PM 82.9 °F 85.4 °F 66.9 °F 58% 30.08 in 10.0 mi ENE 3.5 mph - N/A   Clear
1:56 PM 84.9 °F 88.2 °F 68.0 °F 57% 30.07 in 10.0 mi Calm Calm - N/A   Clear
2:56 PM 87.1 °F 92.0 °F 70.0 °F 57% 30.06 in 10.0 mi Variable 5.8 mph - N/A   Scattered Clouds
3:56 PM 87.1 °F 92.0 °F 70.0 °F 57% 30.05 in 10.0 mi Variable 3.5 mph - N/A   Clear
4:56 PM 87.1 °F 91.3 °F 69.1 °F 55% 30.04 in 10.0 mi Variable 3.5 mph - N/A   Clear
5:56 PM 88.0 °F 91.4 °F 68.0 °F 51% 30.03 in 0.2 mi Calm Calm - N/A   Haze
6:40 PM 86.0 °F 90.4 °F 69.8 °F 58% 30.05 in 1.0 mi North 3.5 mph - N/A   Haze
6:43 PM 86.0 °F 90.4 °F 69.8 °F 58% 30.05 in 4.0 mi North 3.5 mph - N/A   Haze
6:51 PM 84.2 °F 88.4 °F 69.8 °F 62% 30.05 in 0.2 mi North 3.5 mph - N/A   Haze
6:56 PM 84.9 °F 89.4 °F 70.0 °F 61% 30.03 in 0.2 mi North 3.5 mph - N/A   Haze
7:29 PM 80.6 °F 85.4 °F 73.4 °F 79% 30.05 in 1.0 mi Calm Calm - N/A   Haze
7:32 PM 78.8 °F - 73.4 °F 83% 30.05 in 5.0 mi Calm Calm - N/A   Haze
7:56 PM 77.0 °F - 72.0 °F 84% 30.04 in 10.0 mi Calm Calm - N/A   Clear
8:56 PM 73.9 °F - 71.1 °F 91% 30.07 in 9.0 mi Calm Calm - N/A   Clear
9:56 PM 73.0 °F - 70.0 °F 90% 30.09 in 8.0 mi Calm Calm - N/A   Clear
10:56 PM 72.0 °F - 69.1 °F 91% 30.10 in 7.0 mi Calm Calm - N/A   Clear
11:56 PM 71.1 °F - 68.0 °F 90% 30.10 in 6.0 mi Calm Calm - N/A   Clear